[[{"header":{"parameterUnit":"m.s-1","parameterCategory":2,"la1":30.2991,"la2":30.254,"lo1":-89.0895,"lo2":-89.0444,"dy":0.0017,"dx":0.0017,"nx":28,"ny":28,"refTime":"2023-11-02T03:00:00:Z","depth":"0","parameterNumber":2,"parameterNumberName":"U-component_of_CURRENTS"},"data":[0,0,0,0,0,0,0,0,0,0,0,0,0,0,0,0,0,0,0,0,0,0,0,0,0,0,0,0,0,0,0,0,0,0,0,0,0,0,0,0,0,0,0,0,0,0,0,0,0,0,0,0,0,0,0,0,0,0,0.3017,0.3017,0,0.3015,0.3015,0.3015,0.3007,0.3007,0.3007,0.3007,0.2938,0.2936,0.2935,0,0,0,0,0,0,0,0,0,0,0,0,0,0.299,0.2991,0.3017,0.3017,0.3017,0.3015,0.3015,0.3015,0.3007,0.3007,0.3007,0.3007,0.2939,0.2937,0.2934,0,0,0,0,0,0,0,0,0,0,0,0,0,0.2994,0.2991,0.3017,0.3015,0.3015,0.3015,0.3015,0.3015,0.3007,0.3007,0.3007,0.3007,0.2939,0.2937,0.2934,0.2917,0,0,0.2926,0.2925,0,0,0,0,0,0,0,0,0.2994,0.2995,0.3015,0.3015,0.3015,0.3013,0.2981,0.298,0.3007,0.3007,0.3007,0.3007,0.2958,0.2954,0.2952,0.2914,0.2911,0.2925,0.2924,0.2923,0.2922,0,0,0,0,0,0,0,0.2994,0.2995,0.3014,0.3015,0.3015,0.3006,0.3006,0.298,0.298,0.3007,0.3007,0.301,0.2958,0.2954,0.295,0.291,0.2926,0.2923,0.2921,0.292,0.2891,0.2892,0,0,0,0,0,0,0.3,0.2995,0.3014,0.3014,0.3007,0.3007,0.3007,0.3012,0.2982,0.2978,0.301,0.301,0.2959,0.2953,0.2947,0.2957,0.2923,0.292,0.2918,0.289,0.2891,0.2892,0,0,0,0,0,0,0.2999,0.3002,0.3014,0.3006,0.3007,0.3007,0.3013,0.3012,0.301,0.2985,0.298,0.301,0.2959,0.2951,0.2936,0.2953,0.2919,0.2916,0.2889,0.2891,0.2892,0.2955,0,0,0,0,0,0,0.2998,0.3001,0.3005,0.3007,0.3008,0.3016,0.3013,0.3012,0.3013,0.3013,0.2983,0.2977,0.2958,0.294,0.2933,0.2948,0.2914,0.2888,0.289,0.2891,0.2952,0.2958,0.2964,0,0,0,0,0,0.2998,0.2997,0.3005,0.3008,0.3014,0.3017,0.3016,0.3015,0.3013,0.3013,0.3001,0.2978,0.2946,0.2938,0.293,0.2945,0.2887,0.2889,0.2891,0.2949,0.2957,0.2963,0,0,0,0,0,0,0.2973,0.2997,0.3005,0.3009,0.3016,0.3016,0.3014,0.3016,0.3007,0.3004,0.2981,0.2974,0.2972,0.2947,0.294,0.2942,0.2915,0.2915,0.2962,0.2969,0.2975,0.2993,0.2912,0,0,0,0,0,0.2975,0.2986,0.3003,0.3002,0.301,0.3014,0.3014,0.3016,0.3011,0.3007,0.2992,0.2978,0.2973,0.2962,0.2949,0.294,0.2953,0.2946,0.2952,0.2958,0.2968,0.3004,0.3015,0.2899,0.2899,0.2899,0,0,0.2961,0.2977,0.298,0.2999,0.3003,0.3019,0.3013,0.3015,0.3028,0.2999,0.3003,0.2995,0.2976,0.2979,0.2975,0.2958,0.3001,0.296,0.2965,0.2972,0.3008,0.3019,0.3029,0.29,0.29,0.2899,0,0,0.2945,0.2959,0.2969,0.2985,0.3003,0.3012,0.3016,0.3025,0.3029,0.3031,0.3028,0.3034,0.3006,0.3015,0.3011,0.3038,0.3035,0.303,0.307,0.3105,0.3116,0.3125,0.3176,0.3189,0.303,0.303,0.303,0,0.2931,0.2948,0.2968,0.2988,0.3,0.3013,0.3026,0.3037,0.304,0.3053,0.3037,0.3048,0.3029,0.3057,0.3073,0.3053,0.3078,0.3044,0.3115,0.3124,0.3132,0.3182,0.3196,0.3033,0.3033,0.3032,0.3032,0,0.2929,0.2948,0.2952,0.2991,0.3007,0.3014,0.3044,0.306,0.3067,0.3083,0.3108,0.3098,0.3108,0.3107,0.3096,0.315,0.3152,0.3123,0.31,0.3148,0.3197,0.3211,0.3038,0.3037,0.3036,0.3035,0,0,0.2881,0.2942,0.2942,0.2967,0.301,0.3021,0.3056,0.3092,0.3121,0.3132,0.3169,0.3178,0.3186,0.3185,0.318,0.3211,0.3295,0.3196,0.3197,0.3254,0.3397,0.3368,0.338,0.3282,0.3284,0.3286,0.3415,0,0.2871,0.291,0.2944,0.2975,0.2998,0.3037,0.3071,0.311,0.3138,0.3179,0.32,0.3224,0.3212,0.3221,0.3257,0.3283,0.333,0.3264,0.3335,0.3338,0.3312,0.3393,0.3159,0.3252,0.3428,0.343,0.3431,0,0.2855,0.2889,0.292,0.2984,0.2997,0.3021,0.3084,0.3117,0.3189,0.3214,0.3261,0.3276,0.3339,0.3306,0.3404,0.3365,0.3394,0.3412,0.3416,0.3376,0.3333,0.3227,0.3269,0.3147,0.3451,0.345,0.3448,0,0.2808,0.2867,0.2892,0.2912,0.2988,0.3011,0.3051,0.3123,0.3162,0.3242,0.3286,0.3348,0.3391,0.3436,0.3489,0.345,0.3598,0.3539,0.355,0.3548,0.3355,0.3333,0.3288,0.3615,0.3615,0.3615,0.3614,0,0.2781,0.28,0.2873,0.2888,0.2925,0.2987,0.3032,0.309,0.3172,0.323,0.3303,0.3359,0.3426,0.3511,0.3534,0.3607,0.3641,0.3586,0.3586,0.3372,0.3351,0.324,0.3218,0.362,0.3618,0.3618,0.3617,0,0.2727,0.277,0.2807,0.2882,0.2904,0.2931,0.3017,0.3053,0.3152,0.3235,0.3265,0.3394,0.3509,0.3591,0.3681,0.3672,0.3613,0.374,0.35,0.3469,0.3323,0.3314,0.3239,0.3149,0.3756,0.3756,0.3756,0,0.2702,0.2717,0.2791,0.2806,0.2838,0.2888,0.2921,0.3022,0.3069,0.3246,0.3281,0.3435,0.3527,0.3686,0.3688,0.3756,0.3636,0.3567,0.3438,0.3313,0.3303,0.3207,0.3128,0.3216,0.3212,0.3208,0.3205,0,0.2657,0.2684,0.2715,0.2758,0.2788,0.2825,0.2885,0.2924,0.3054,0.3133,0.325,0.3342,0.3517,0.3476,0.3591,0.3583,0.3354,0.3499,0.3406,0.2926,0.2778,0.2689,0.3161,0.3174,0.3177,0.3179,0.3181,0.3182,0.261,0.2623,0.2665,0.269,0.2726,0.2751,0.2742,0.2823,0.2884,0.2972,0.3123,0.3179,0.3225,0.3344,0.3339,0.3134,0.3212,0.2958,0.2979,0.2911,0.2742,0.3179,0.3167,0.317,0.3172,0.3175,0.3177,0,0.253,0.2557,0.2592,0.2612,0.2603,0.2654,0.2696,0.2666,0.2684,0.2797,0.2861,0.2849,0.281,0.2824,0.2712,0.2602,0.2467,0.2503,0.2261,0.2228,0.2623,0.2513,0.231,0.231,0.231,0.231,0.2311,0.2311,0.2488,0.248,0.25,0.2463,0.2473,0.2418,0.2406,0.2397,0.2433,0.2407,0.2369,0.2436,0.2503,0.241,0.2231,0.2166,0.2006,0.1893,0.1989,0.2199,0.224,0.2278,0.2165,0.1893,0.1893,0.1396,0.1393,0.139]},{"header":{"parameterUnit":"m.s-1","parameterCategory":2,"la1":30.2991,"la2":30.254,"lo1":-89.0895,"lo2":-89.0444,"dy":0.0017,"dx":0.0017,"nx":28,"ny":28,"refTime":"2023-11-02T03:00:00:Z","depth":"0","parameterNumber":3,"parameterNumberName":"V-component_of_CURRENTS"},"data":[0,0,0,0,0,0,0,0,0,0,0,0,0,0,0,0,0,0,0,0,0,0,0,0,0,0,0,0,0,0,0,0,0,0,0,0,0,0,0,0,0,0,0,0,0,0,0,0,0,0,0,0,0,0,0,0,0,0,-0.059,-0.0591,0,-0.063,-0.063,-0.063,-0.0658,-0.0658,-0.0659,-0.0659,-0.0669,-0.0669,-0.0669,0,0,0,0,0,0,0,0,0,0,0,0,0,-0.0492,-0.0494,-0.059,-0.0591,-0.0592,-0.063,-0.063,-0.0631,-0.0658,-0.0658,-0.0659,-0.0659,-0.0669,-0.0669,-0.0669,0,0,0,0,0,0,0,0,0,0,0,0,0,-0.0532,-0.0495,-0.059,-0.0611,-0.0613,-0.063,-0.063,-0.0631,-0.0658,-0.0658,-0.0659,-0.0659,-0.0669,-0.0669,-0.0669,-0.0657,0,0,-0.0668,-0.0668,0,0,0,0,0,0,0,0,-0.053,-0.0536,-0.0607,-0.061,-0.0612,-0.0641,-0.0599,-0.0639,-0.0658,-0.0639,-0.0659,-0.066,-0.0657,-0.0658,-0.0663,-0.0658,-0.0658,-0.0668,-0.0668,-0.0668,-0.0668,0,0,0,0,0,0,0,-0.0527,-0.0534,-0.0604,-0.0608,-0.0611,-0.0602,-0.0609,-0.0607,-0.0643,-0.0641,-0.0643,-0.065,-0.0658,-0.0663,-0.0663,-0.0658,-0.0668,-0.0668,-0.0668,-0.0668,-0.0661,-0.0661,0,0,0,0,0,0,-0.0528,-0.0532,-0.0603,-0.0606,-0.0573,-0.0604,-0.0611,-0.063,-0.0644,-0.0647,-0.065,-0.0651,-0.0663,-0.0663,-0.0663,-0.0652,-0.0668,-0.0668,-0.0668,-0.0661,-0.0661,-0.0661,0,0,0,0,0,0,-0.0526,-0.0534,-0.0602,-0.057,-0.0578,-0.0606,-0.0626,-0.063,-0.0636,-0.0651,-0.0654,-0.0651,-0.0663,-0.0664,-0.0665,-0.0653,-0.0668,-0.0668,-0.0661,-0.0661,-0.0661,-0.0629,0,0,0,0,0,0,-0.0523,-0.0533,-0.0541,-0.057,-0.058,-0.0606,-0.0626,-0.0631,-0.064,-0.0642,-0.0653,-0.0654,-0.0663,-0.0665,-0.0665,-0.0653,-0.0668,-0.0661,-0.0661,-0.0661,-0.063,-0.0628,-0.0625,0,0,0,0,0,-0.0519,-0.0526,-0.0541,-0.055,-0.0592,-0.0606,-0.0609,-0.0629,-0.0639,-0.0637,-0.065,-0.0654,-0.0663,-0.0665,-0.0664,-0.0652,-0.0661,-0.0661,-0.0661,-0.0631,-0.0628,-0.0626,0,0,0,0,0,0,-0.0483,-0.0531,-0.0548,-0.0569,-0.0585,-0.0611,-0.0608,-0.0625,-0.0634,-0.0633,-0.0651,-0.0653,-0.0652,-0.0657,-0.0658,-0.0651,-0.0663,-0.0663,-0.0641,-0.0638,-0.0636,-0.0618,-0.0668,0,0,0,0,0,-0.0481,-0.0499,-0.0537,-0.0548,-0.0557,-0.0582,-0.0588,-0.0602,-0.0617,-0.0621,-0.0633,-0.0643,-0.0649,-0.0648,-0.0655,-0.0645,-0.0645,-0.0639,-0.0637,-0.0634,-0.0621,-0.0623,-0.0619,-0.066,-0.066,-0.066,0,0,-0.0467,-0.0495,-0.0504,-0.0541,-0.0553,-0.0555,-0.0586,-0.0591,-0.0587,-0.0619,-0.0613,-0.0634,-0.0647,-0.0644,-0.0642,-0.0645,-0.0623,-0.0634,-0.0632,-0.0619,-0.0622,-0.0618,-0.0614,-0.066,-0.066,-0.066,0,0,-0.0435,-0.0474,-0.0473,-0.0487,-0.0509,-0.0527,-0.0528,-0.0555,-0.0561,-0.0563,-0.0589,-0.0603,-0.0609,-0.0619,-0.0624,-0.061,-0.0614,-0.0615,-0.0581,-0.0584,-0.058,-0.0577,-0.0567,-0.0563,-0.0609,-0.0609,-0.0609,0,-0.041,-0.0427,-0.0469,-0.0467,-0.0472,-0.0513,-0.0501,-0.0513,-0.0535,-0.0535,-0.0554,-0.0578,-0.0594,-0.059,-0.0592,-0.0603,-0.0602,-0.059,-0.0579,-0.0576,-0.0573,-0.0564,-0.0561,-0.0607,-0.0607,-0.0608,-0.0608,0,-0.0376,-0.0389,-0.0385,-0.0403,-0.0412,-0.0409,-0.0437,-0.044,-0.046,-0.0477,-0.0485,-0.0518,-0.0531,-0.0544,-0.0563,-0.0554,-0.0559,-0.058,-0.0583,-0.0567,-0.0559,-0.0555,-0.0605,-0.0606,-0.0606,-0.0606,0,0,-0.0314,-0.0354,-0.035,-0.035,-0.038,-0.038,-0.0374,-0.0382,-0.0368,-0.0405,-0.0391,-0.0429,-0.0459,-0.0467,-0.0501,-0.0507,-0.0495,-0.0531,-0.0532,-0.0515,-0.0489,-0.0468,-0.0462,-0.0516,-0.0516,-0.0515,-0.0489,0,-0.0267,-0.0257,-0.0289,-0.0268,-0.0265,-0.0301,-0.0291,-0.0303,-0.0318,-0.0315,-0.0361,-0.0366,-0.0426,-0.0433,-0.0451,-0.0483,-0.0485,-0.05,-0.0512,-0.0512,-0.049,-0.0457,-0.0408,-0.0379,-0.0485,-0.0485,-0.0485,0,-0.0216,-0.022,-0.0197,-0.021,-0.0209,-0.0199,-0.019,-0.0187,-0.02,-0.0212,-0.0237,-0.0278,-0.0302,-0.0354,-0.0395,-0.0401,-0.0437,-0.0467,-0.0467,-0.0452,-0.0484,-0.0414,-0.0368,-0.0483,-0.0479,-0.048,-0.048,0,-0.015,-0.0153,-0.0134,-0.0138,-0.0155,-0.0139,-0.0142,-0.0149,-0.0129,-0.0144,-0.013,-0.0185,-0.0195,-0.0255,-0.0326,-0.0358,-0.0358,-0.0412,-0.0425,-0.0424,-0.0385,-0.0381,-0.0443,-0.0429,-0.043,-0.043,-0.043,0,-0.0097,-0.008,-0.0099,-0.0088,-0.0047,-0.0079,-0.0031,-0.0042,-0.0033,0.0015,-0.0071,-0.0043,-0.0171,-0.0196,-0.0277,-0.0322,-0.032,-0.04,-0.041,-0.0372,-0.0368,-0.0469,-0.0545,-0.0429,-0.0429,-0.0429,-0.0429,0,-0.0036,-0.0053,-0.0024,-0.0025,-0.0018,0.0015,0.0041,0.0077,0.007,0.0135,0.0134,0.0076,0.0048,-0.006,-0.0142,-0.024,-0.0344,-0.0316,-0.0256,-0.026,-0.0402,-0.0476,-0.0532,-0.0572,-0.0333,-0.0333,-0.0332,0,-0.0008,0.0012,0.0034,0.0061,0.0065,0.0104,0.0137,0.0135,0.0183,0.0226,0.027,0.0245,0.0272,0.0151,-0.0014,-0.013,-0.0272,-0.0209,-0.0273,-0.0383,-0.0474,-0.054,-0.0575,-0.0209,-0.0207,-0.0206,-0.0205,0,0.0053,0.0064,0.0085,0.0139,0.0182,0.0232,0.0283,0.0339,0.0366,0.0439,0.0527,0.0555,0.044,0.0337,0.014,0.0033,-0.0277,-0.0187,-0.0316,-0.0384,-0.0442,-0.0493,-0.0255,-0.0193,-0.0195,-0.0195,-0.0196,-0.0196,0.0109,0.0138,0.0169,0.0223,0.0278,0.036,0.0421,0.0502,0.0615,0.075,0.0752,0.0853,0.0629,0.0379,0.0208,-0.0131,-0.0172,-0.0257,-0.0336,-0.0391,-0.0436,-0.0164,-0.0112,-0.0112,-0.0113,-0.0113,-0.0114,0,0.0182,0.0198,0.0247,0.0318,0.0397,0.0406,0.0518,0.0599,0.0766,0.0928,0.1044,0.1031,0.0785,0.0462,0.0005,-0.0244,-0.0352,-0.0398,-0.0492,-0.0522,-0.0281,-0.0283,-0.0246,-0.0246,-0.0246,-0.0246,-0.0246,-0.0246,0.0216,0.0269,0.0283,0.041,0.0468,0.0575,0.0647,0.0787,0.092,0.1138,0.1247,0.1299,0.1039,0.0233,-0.033,-0.0465,-0.0656,-0.0674,-0.0798,-0.0656,-0.065,-0.0645,-0.0666,-0.0709,-0.071,-0.099,-0.0992,-0.0995]}],[{"header":{"parameterUnit":"m.s-1","parameterCategory":2,"la1":30.2991,"la2":30.254,"lo1":-89.0895,"lo2":-89.0444,"dy":0.0017,"dx":0.0017,"nx":28,"ny":28,"refTime":"2023-11-02T03:00:00:Z","depth":"2","parameterNumber":2,"parameterNumberName":"U-component_of_CURRENTS"},"data":[0,0,0,0,0,0,0,0,0,0,0,0,0,0,0,0,0,0,0,0,0,0,0,0,0,0,0,0,0,0,0,0,0,0,0,0,0,0,0,0,0,0,0,0,0,0,0,0,0,0,0,0,0,0,0,0,0,0,0.2277,0.2276,0,0.2289,0.229,0.2291,0.2334,0.2334,0.2334,0.2334,0.232,0.232,0.2319,0,0,0,0,0,0,0,0,0,0,0,0,0,0.2319,0.2319,0.2277,0.2276,0.2276,0.2289,0.229,0.2291,0.2334,0.2334,0.2334,0.2334,0.232,0.232,0.2319,0,0,0,0,0,0,0,0,0,0,0,0,0,0.2322,0.2318,0.2277,0.2291,0.2292,0.2288,0.229,0.2291,0.2334,0.2334,0.2334,0.2334,0.232,0.232,0.2319,0.2314,0,0,0.2317,0.2317,0,0,0,0,0,0,0,0,0.2322,0.2322,0.229,0.229,0.2291,0.2301,0.2299,0.2294,0.2334,0.2329,0.2334,0.2334,0.2304,0.2305,0.2322,0.2313,0.2313,0.2317,0.2317,0.2317,0.2316,0,0,0,0,0,0,0,0.2322,0.2322,0.2292,0.2289,0.2289,0.2305,0.2306,0.2299,0.2324,0.2329,0.233,0.2315,0.2306,0.2323,0.2322,0.2312,0.2317,0.2317,0.2316,0.2316,0.2359,0.2361,0,0,0,0,0,0,0.2298,0.2321,0.2292,0.2292,0.2295,0.2303,0.2305,0.2306,0.2324,0.2324,0.2315,0.2316,0.2324,0.2323,0.2321,0.2363,0.2317,0.2316,0.2316,0.2358,0.236,0.2361,0,0,0,0,0,0,0.2299,0.2296,0.2291,0.2298,0.2297,0.2301,0.2302,0.2306,0.2335,0.2311,0.2313,0.2339,0.2324,0.2322,0.234,0.2361,0.2316,0.2315,0.2356,0.2358,0.2361,0.2416,0,0,0,0,0,0,0.2301,0.2297,0.2317,0.2296,0.2295,0.23,0.2301,0.2306,0.2319,0.2323,0.2333,0.2331,0.2324,0.2341,0.234,0.2359,0.2315,0.2354,0.2357,0.236,0.2412,0.242,0.2426,0,0,0,0,0,0.2303,0.231,0.2318,0.2315,0.2314,0.2299,0.2303,0.2312,0.232,0.234,0.2353,0.2332,0.2358,0.2342,0.234,0.2359,0.2353,0.2356,0.236,0.2409,0.2418,0.2426,0,0,0,0,0,0,0.232,0.2314,0.2322,0.2325,0.2319,0.2303,0.2312,0.232,0.2349,0.2358,0.2348,0.2348,0.2373,0.2361,0.2343,0.2383,0.2353,0.2356,0.2391,0.24,0.2407,0.2418,0.2314,0,0,0,0,0,0.2334,0.2345,0.2334,0.233,0.2333,0.2331,0.2334,0.2341,0.2343,0.2358,0.2362,0.2372,0.2384,0.2387,0.2394,0.241,0.2416,0.2423,0.243,0.2436,0.2446,0.2483,0.2495,0.2373,0.2373,0.2373,0,0,0.2331,0.2328,0.2333,0.2337,0.2334,0.2345,0.2336,0.2339,0.2358,0.2348,0.2386,0.2395,0.2395,0.2423,0.2432,0.2415,0.2476,0.2441,0.2446,0.2452,0.2488,0.25,0.251,0.2375,0.2375,0.2374,0,0,0.2318,0.2335,0.2348,0.2361,0.2362,0.2359,0.2362,0.2368,0.2388,0.2416,0.2422,0.2451,0.2457,0.2474,0.2479,0.2527,0.2514,0.2525,0.2567,0.2603,0.2614,0.2623,0.2651,0.2663,0.2527,0.2527,0.2527,0,0.2328,0.2331,0.2345,0.2366,0.2373,0.2366,0.2384,0.2401,0.2415,0.244,0.2433,0.2483,0.2485,0.2524,0.2551,0.2543,0.256,0.2532,0.2613,0.2622,0.263,0.2657,0.2669,0.253,0.253,0.2529,0.2529,0,0.2323,0.2345,0.2344,0.2376,0.2399,0.2397,0.242,0.2445,0.246,0.2484,0.2533,0.2545,0.258,0.2583,0.2584,0.2646,0.2638,0.2618,0.2589,0.2646,0.2671,0.2682,0.2534,0.2533,0.2532,0.2532,0,0,0.2297,0.2337,0.2342,0.2366,0.2407,0.2413,0.2454,0.2486,0.2515,0.255,0.2601,0.2636,0.2659,0.2668,0.2671,0.2701,0.2781,0.2693,0.2694,0.272,0.2865,0.2781,0.2784,0.2777,0.2779,0.2781,0.286,0,0.2287,0.2319,0.2351,0.2383,0.2402,0.244,0.2471,0.2519,0.2555,0.2607,0.2644,0.2693,0.2684,0.2711,0.2746,0.2773,0.2813,0.2761,0.2809,0.281,0.2726,0.2795,0.2563,0.2607,0.2871,0.2873,0.2874,0,0.2277,0.2301,0.2337,0.2389,0.2402,0.2431,0.2491,0.2529,0.2611,0.2649,0.2718,0.2752,0.2824,0.28,0.288,0.285,0.2876,0.2884,0.2887,0.2796,0.2746,0.2593,0.2617,0.2892,0.2891,0.2889,0.2888,0,0.2241,0.229,0.2312,0.2337,0.2399,0.2431,0.2468,0.2549,0.2597,0.2699,0.2752,0.2823,0.2882,0.2916,0.2958,0.2932,0.3033,0.2992,0.2939,0.2933,0.2738,0.271,0.3059,0.3059,0.3059,0.3058,0.3058,0,0.2212,0.2235,0.2297,0.2316,0.2346,0.2422,0.2475,0.2523,0.2624,0.2687,0.2783,0.2831,0.2919,0.2985,0.2995,0.3008,0.3071,0.2965,0.2954,0.275,0.2724,0.2966,0.2954,0.3061,0.3061,0.306,0.306,0,0.2168,0.2207,0.2238,0.2307,0.2331,0.2367,0.2473,0.2509,0.2619,0.2709,0.2753,0.2882,0.2955,0.3022,0.3091,0.3057,0.3068,0.306,0.2815,0.2773,0.2932,0.2923,0.2998,0.2995,0.2994,0.2992,0.2991,0,0.2144,0.2151,0.2221,0.2246,0.2278,0.2346,0.238,0.2491,0.2547,0.2709,0.2742,0.2876,0.2909,0.2992,0.2984,0.2995,0.3057,0.2774,0.2671,0.2948,0.293,0.2923,0.2916,0.2442,0.2437,0.2432,0.2428,0,0.2095,0.212,0.2149,0.219,0.2232,0.2275,0.2349,0.2386,0.2516,0.2578,0.2652,0.2696,0.2807,0.2706,0.2758,0.2728,0.2745,0.2677,0.3048,0.2487,0.2428,0.241,0.242,0.2387,0.2391,0.2394,0.2396,0.2398,0.2056,0.2056,0.2092,0.2119,0.2171,0.2193,0.2181,0.2255,0.2297,0.2342,0.2461,0.2437,0.2488,0.2425,0.2368,0.2357,0.2541,0.2407,0.2419,0.2437,0.2352,0.2293,0.221,0.2213,0.2216,0.2218,0.222,0,0.1982,0.1993,0.2018,0.2038,0.2039,0.2105,0.2138,0.208,0.2056,0.2123,0.2133,0.1964,0.1911,0.1986,0.1902,0.1911,0.1889,0.1828,0.1764,0.1808,0.1846,0.1728,0.1423,0.142,0.1417,0.1415,0,0,0.1953,0.1934,0.1934,0.1897,0.1915,0.1862,0.1848,0.1785,0.1788,0.1691,0.1666,0.1776,0.1892,0.1603,0.159,0.1483,0.1627,0.143,0.2075,0.2041,0.2075,0.2192,0.2063,0,0,0,0,0]},{"header":{"parameterUnit":"m.s-1","parameterCategory":2,"la1":30.2991,"la2":30.254,"lo1":-89.0895,"lo2":-89.0444,"dy":0.0017,"dx":0.0017,"nx":28,"ny":28,"refTime":"2023-11-02T03:00:00:Z","depth":"2","parameterNumber":3,"parameterNumberName":"V-component_of_CURRENTS"},"data":[0,0,0,0,0,0,0,0,0,0,0,0,0,0,0,0,0,0,0,0,0,0,0,0,0,0,0,0,0,0,0,0,0,0,0,0,0,0,0,0,0,0,0,0,0,0,0,0,0,0,0,0,0,0,0,0,0,0,0.0165,0.0165,0,0.0114,0.0113,0.0111,0.0052,0.0052,0.0052,0.0052,0.0019,0.0018,0.0017,0,0,0,0,0,0,0,0,0,0,0,0,0,0.0158,0.0158,0.0165,0.0165,0.0165,0.0114,0.0113,0.0111,0.0052,0.0052,0.0052,0.0052,0.0019,0.0018,0.0017,0,0,0,0,0,0,0,0,0,0,0,0,0,0.013,0.0157,0.0165,0.0137,0.0135,0.0115,0.0113,0.0111,0.0052,0.0052,0.0052,0.0052,0.002,0.0018,0.0017,0.0009,0,0,0.0013,0.0013,0,0,0,0,0,0,0,0,0.0132,0.0129,0.0141,0.0139,0.0136,0.0098,0.0099,0.0081,0.0052,0.0073,0.0052,0.0052,0.0054,0.0049,0.0026,0.0008,0.0006,0.0013,0.0012,0.0012,0.0011,0,0,0,0,0,0,0,0.0134,0.0131,0.0135,0.0141,0.0139,0.011,0.0105,0.0094,0.0057,0.0071,0.0069,0.0079,0.0051,0.0027,0.0025,0.0006,0.0013,0.0012,0.0011,0.0011,-0.0019,-0.0019,0,0,0,0,0,0,0.0163,0.0133,0.0137,0.0134,0.0145,0.0111,0.0105,0.0102,0.0056,0.0052,0.0079,0.0077,0.0029,0.0026,0.0024,0.0023,0.0012,0.001,0.001,-0.0019,-0.0019,-0.0019,0,0,0,0,0,0,0.0162,0.0163,0.0139,0.0141,0.0137,0.0112,0.0109,0.0102,0.0081,0.0064,0.0058,0.0068,0.0029,0.0025,0.0017,0.0021,0.001,0.0009,-0.0019,-0.0019,-0.0019,0.0014,0,0,0,0,0,0,0.0162,0.0162,0.0161,0.0143,0.0139,0.0132,0.011,0.0101,0.0092,0.0087,0.0053,0.0049,0.0029,0.0019,0.0016,0.0019,0.0008,-0.0019,-0.0019,-0.0019,0.0013,0.0016,0.0017,0,0,0,0,0,0.0161,0.0168,0.0161,0.0161,0.014,0.0134,0.0127,0.0103,0.0092,0.0082,0.0061,0.005,0.0016,0.0018,0.0014,0.0017,-0.0019,-0.0019,-0.0019,0.0012,0.0015,0.0017,0,0,0,0,0,0,0.0169,0.0163,0.0154,0.0159,0.0151,0.0127,0.0123,0.0108,0.008,0.0079,0.0052,0.0047,0.0038,0.0024,0.0027,0.0007,-0.0004,-0.0005,0.0021,0.0024,0.0026,0.0048,0.0007,0,0,0,0,0,0.0172,0.0175,0.0164,0.0172,0.0166,0.0143,0.0136,0.0124,0.0107,0.0093,0.0065,0.0044,0.0033,0.0028,0.0009,0.0003,-0.0007,0.0001,0.0003,0.0005,0.002,-0.0001,0.0,-0.0019,-0.0019,-0.0019,0,0,0.0181,0.0181,0.0182,0.0174,0.0161,0.0159,0.0135,0.0134,0.0135,0.0097,0.0076,0.005,0.0033,0.0021,0.0016,0.0012,0.0005,0.0005,0.0007,0.0021,-0.0001,0.0001,0.0003,-0.0019,-0.0019,-0.0019,0,0,0.0207,0.0195,0.0201,0.0193,0.019,0.0178,0.0182,0.0153,0.0138,0.0125,0.0097,0.0076,0.005,0.0033,0.0028,0.0033,0.0016,0.0024,0.0056,0.0034,0.0036,0.0037,0.0029,0.0029,0.0027,0.0027,0.0027,0,0.0216,0.0226,0.0204,0.0208,0.0213,0.0191,0.02,0.0183,0.0155,0.0151,0.0127,0.0086,0.0058,0.0063,0.0056,0.0039,0.0029,0.0049,0.0038,0.0039,0.004,0.0031,0.0031,0.0029,0.0029,0.0029,0.0028,0,0.0243,0.0249,0.0256,0.0253,0.0247,0.0259,0.0241,0.0229,0.0209,0.0192,0.0178,0.0133,0.0112,0.0094,0.0076,0.0072,0.0064,0.0042,0.0035,0.0044,0.0034,0.0033,0.0031,0.0031,0.003,0.003,0,0,0.0275,0.0275,0.0277,0.0289,0.0276,0.0282,0.0282,0.0283,0.03,0.025,0.0259,0.0213,0.0181,0.0172,0.0138,0.0116,0.0099,0.0085,0.0083,0.0083,0.0064,0.0049,0.0047,0.0074,0.0074,0.0074,0.0056,0,0.0307,0.0332,0.032,0.035,0.036,0.0341,0.0352,0.0346,0.0333,0.0329,0.0284,0.0272,0.0216,0.0204,0.0172,0.0122,0.01,0.0108,0.005,0.0049,0.0039,0.0046,0.0066,0.005,0.0055,0.0055,0.0055,0,0.0338,0.0355,0.0384,0.0411,0.0413,0.0427,0.0449,0.0455,0.0444,0.0429,0.0401,0.0361,0.0322,0.0267,0.0192,0.0201,0.0138,0.0094,0.0091,0.0069,0.0033,0.004,0.0049,0.0053,0.0054,0.0054,0.0054,0,0.0381,0.0405,0.0437,0.0441,0.0458,0.0475,0.0486,0.0486,0.0506,0.0489,0.0502,0.044,0.042,0.0331,0.0224,0.0207,0.0147,0.0108,0.0041,0.0039,0.0042,0.0041,0.0056,0.0056,0.0056,0.0056,0.0056,0,0.0427,0.0455,0.0464,0.0483,0.0535,0.0523,0.0578,0.0577,0.0589,0.0635,0.0558,0.0584,0.0434,0.0376,0.0263,0.0159,0.0171,0.0057,0.0034,0.0054,0.0054,0.0044,0.0042,0.0055,0.0056,0.0056,0.0056,0,0.0472,0.0474,0.0517,0.0543,0.0557,0.0593,0.0636,0.0681,0.0681,0.0739,0.0734,0.0689,0.0615,0.0472,0.0335,0.0224,0.0113,0.007,0.0108,0.009,0.0011,0.0011,-0.0005,-0.0005,-0.0006,-0.0006,-0.0007,0,0.0499,0.0526,0.0563,0.0593,0.061,0.0659,0.0705,0.072,0.0772,0.082,0.0862,0.0805,0.0785,0.058,0.0366,0.0171,0.0134,0.0057,0.0017,0.0025,0.0005,0.0006,0.0008,0.0036,0.0036,0.0036,0.0036,0,0.0556,0.0565,0.0595,0.0657,0.071,0.077,0.0835,0.0889,0.0931,0.0986,0.1051,0.1037,0.0852,0.065,0.037,0.0239,0.0083,0.005,0.0056,0.0045,0.0061,0.0041,0.0042,0.0036,0.0036,0.0036,0.0036,0.0036,0.0596,0.0627,0.0664,0.0728,0.0786,0.0872,0.0936,0.1017,0.1108,0.1183,0.118,0.1152,0.0935,0.0566,0.034,0.0088,0.01,0.0,0.0002,0.0003,0.0007,0.0021,-0.001,-0.001,-0.001,-0.001,-0.001,0,0.0645,0.0677,0.0736,0.0806,0.0878,0.09,0.1018,0.1087,0.1206,0.1251,0.1286,0.1076,0.0858,0.0597,0.0229,0.002,0.0003,-0.0052,-0.0029,-0.0027,-0.0025,-0.0022,-0.0047,-0.0048,-0.0048,-0.0049,0,0,0.0668,0.0725,0.0752,0.0866,0.0921,0.1026,0.1095,0.1195,0.1246,0.1287,0.125,0.1203,0.0908,0.0631,0.0357,0.0146,0.0103,0.0106,0.0161,0.0223,0.0227,0.0035,0.0047,0,0,0,0,0]}],[{"header":{"parameterUnit":"m.s-1","parameterCategory":2,"la1":30.2991,"la2":30.254,"lo1":-89.0895,"lo2":-89.0444,"dy":0.0017,"dx":0.0017,"nx":28,"ny":28,"refTime":"2023-11-02T03:00:00:Z","depth":"4","parameterNumber":2,"parameterNumberName":"U-component_of_CURRENTS"},"data":[0,0,0,0,0,0,0,0,0,0,0,0,0,0,0,0,0,0,0,0,0,0,0,0,0,0,0,0,0,0,0,0,0,0,0,0,0,0,0,0,0,0,0,0,0,0,0,0,0,0,0,0,0,0,0,0,0,0,0.1162,0.1162,0,0.122,0.1221,0.1221,0.1272,0.1273,0.1274,0.1274,0.1351,0.1352,0.1354,0,0,0,0,0,0,0,0,0,0,0,0,0,0.1132,0.1131,0.1162,0.1162,0.1163,0.122,0.1221,0.1221,0.1272,0.1273,0.1274,0.1275,0.1351,0.1352,0.1354,0,0,0,0,0,0,0,0,0,0,0,0,0,0.1162,0.1131,0.1161,0.1196,0.12,0.122,0.1221,0.1221,0.1272,0.1273,0.1274,0.1275,0.135,0.1352,0.1354,0.1346,0,0,0.1361,0.1361,0,0,0,0,0,0,0,0,0.116,0.1162,0.119,0.1194,0.1198,0.1241,0.1238,0.1265,0.1272,0.1244,0.1274,0.1276,0.1316,0.1321,0.1328,0.135,0.1353,0.1361,0.1362,0.1363,0.1364,0,0,0,0,0,0,0,0.1157,0.116,0.1184,0.1191,0.1196,0.1222,0.1227,0.1243,0.1273,0.1246,0.125,0.1258,0.1318,0.1326,0.133,0.1354,0.1361,0.1363,0.1364,0.1365,0.147,0.1471,0,0,0,0,0,0,0.1149,0.1158,0.1182,0.1185,0.1182,0.1221,0.1227,0.1225,0.1272,0.1281,0.1257,0.126,0.1321,0.1327,0.1333,0.1414,0.1363,0.1365,0.1366,0.1468,0.147,0.1472,0,0,0,0,0,0,0.1148,0.115,0.1179,0.1175,0.118,0.1221,0.1219,0.1226,0.1263,0.1281,0.1289,0.129,0.1322,0.133,0.1374,0.1414,0.1366,0.1368,0.1466,0.1469,0.1471,0.152,0,0,0,0,0,0,0.1147,0.1149,0.1158,0.1174,0.118,0.1213,0.1218,0.1226,0.1265,0.127,0.1311,0.1317,0.1324,0.1371,0.1376,0.1416,0.1369,0.1464,0.1467,0.147,0.1517,0.1524,0.153,0,0,0,0,0,0.1145,0.1149,0.1158,0.1162,0.1186,0.1214,0.122,0.1251,0.1265,0.1287,0.1315,0.1318,0.1393,0.1373,0.1379,0.1421,0.1463,0.1466,0.147,0.1514,0.1523,0.153,0,0,0,0,0,0,0.114,0.1155,0.1165,0.1173,0.1202,0.1223,0.1248,0.1266,0.1303,0.1318,0.1331,0.134,0.1395,0.1398,0.1376,0.146,0.1431,0.1436,0.1463,0.1471,0.1478,0.1462,0.1371,0,0,0,0,0,0.1141,0.1151,0.1171,0.1184,0.1199,0.1228,0.1248,0.1271,0.13,0.1319,0.1347,0.1379,0.1408,0.1432,0.1456,0.1497,0.1498,0.153,0.1537,0.1542,0.1534,0.1576,0.1586,0.1483,0.1483,0.1483,0,0,0.1149,0.1154,0.1165,0.1185,0.121,0.1236,0.1244,0.1284,0.1313,0.132,0.1377,0.1404,0.1423,0.1474,0.15,0.1486,0.1574,0.1547,0.1551,0.154,0.1581,0.159,0.1599,0.1485,0.1485,0.1484,0,0,0.1159,0.117,0.1185,0.1206,0.1245,0.1263,0.128,0.132,0.1349,0.14,0.1414,0.1461,0.1511,0.1531,0.1545,0.1601,0.1606,0.1623,0.1648,0.169,0.1699,0.1706,0.1725,0.1734,0.1629,0.1629,0.1629,0,0.1171,0.1179,0.1198,0.1215,0.1236,0.1276,0.1302,0.1334,0.1387,0.1411,0.143,0.1511,0.1534,0.1581,0.1606,0.1617,0.1635,0.1616,0.1699,0.1706,0.1713,0.173,0.1739,0.1632,0.1632,0.1631,0.1631,0,0.1186,0.1204,0.1217,0.1248,0.1276,0.1307,0.1346,0.1392,0.1435,0.1463,0.1534,0.157,0.162,0.1641,0.1643,0.1706,0.1702,0.17,0.1675,0.1726,0.1741,0.1749,0.1636,0.1635,0.1634,0.1633,0,0,0.1182,0.122,0.1229,0.1244,0.1295,0.1316,0.1371,0.1422,0.1463,0.1527,0.1579,0.1639,0.1672,0.1689,0.1711,0.1743,0.1812,0.1749,0.1749,0.1761,0.19,0.178,0.1778,0.1836,0.1838,0.1839,0.1892,0,0.1194,0.1223,0.1242,0.1285,0.1304,0.1351,0.1395,0.1449,0.1505,0.1568,0.1616,0.1677,0.1687,0.1729,0.1767,0.1803,0.1837,0.1797,0.1852,0.1853,0.1737,0.1784,0.1844,0.1898,0.19,0.1901,0.1902,0,0.1194,0.1215,0.1253,0.1295,0.1311,0.135,0.1425,0.1472,0.1557,0.1604,0.1675,0.1714,0.1784,0.1785,0.1872,0.1854,0.1882,0.1898,0.1901,0.1772,0.1749,0.1837,0.1917,0.1916,0.1915,0.1914,0.1913,0,0.1167,0.1215,0.1243,0.126,0.1323,0.1361,0.141,0.1492,0.1536,0.1638,0.1687,0.1767,0.1832,0.1877,0.1929,0.1916,0.2008,0.1994,0.1905,0.1897,0.1965,0.1957,0.2046,0.2046,0.2046,0.2046,0.2046,0,0.1143,0.117,0.124,0.1257,0.1303,0.1358,0.1424,0.1485,0.1577,0.1626,0.1715,0.1761,0.1865,0.1927,0.195,0.1954,0.2037,0.1906,0.1904,0.1986,0.1979,0.1971,0.1962,0.2048,0.2047,0.2047,0.2047,0,0.1095,0.1143,0.1178,0.1259,0.1289,0.1329,0.1424,0.1467,0.1569,0.1642,0.1678,0.1791,0.1869,0.1942,0.2022,0.1978,0.199,0.1971,0.2052,0.2055,0.1841,0.1834,0.1861,0.1857,0.1854,0.1851,0.1849,0,0.1066,0.1081,0.1171,0.1199,0.124,0.1309,0.1354,0.1458,0.15,0.1635,0.1656,0.1773,0.1835,0.1852,0.1935,0.1968,0.195,0.1935,0.1874,0.1827,0.1823,0.1821,0.1818,0.1844,0.1843,0.1842,0.1841,0,0.1013,0.1058,0.1093,0.1148,0.1201,0.124,0.1313,0.133,0.1446,0.1555,0.1595,0.1633,0.172,0.1775,0.1827,0.1841,0.1927,0.1901,0.1907,0.185,0.1807,0.1806,0.1807,0.183,0.1832,0.1833,0.1834,0,0.0981,0.0989,0.1043,0.1079,0.1137,0.1147,0.1194,0.1241,0.1295,0.1444,0.1454,0.1579,0.1697,0.171,0.1749,0.1765,0.1733,0.1663,0.168,0.1693,0.1615,0.1535,0.1471,0,0,0,0,0,0.094,0.0937,0.0965,0.0995,0.1045,0.1077,0.1152,0.1202,0.1316,0.1309,0.1377,0.1444,0.1502,0.1564,0.155,0.1675,0.174,0.1649,0.1667,0.177,0.1782,0.1706,0,0,0,0,0,0,0.0912,0.0936,0.0936,0.0915,0.092,0.0959,0.1002,0.1078,0.1078,0.1205,0.125,0.1353,0.1441,0.1508,0.1525,0.1545,0.1524,0.1734,0.173,0.1762,0.1774,0.1784,0.171,0,0,0,0,0]},{"header":{"parameterUnit":"m.s-1","parameterCategory":2,"la1":30.2991,"la2":30.254,"lo1":-89.0895,"lo2":-89.0444,"dy":0.0017,"dx":0.0017,"nx":28,"ny":28,"refTime":"2023-11-02T03:00:00:Z","depth":"4","parameterNumber":3,"parameterNumberName":"V-component_of_CURRENTS"},"data":[0,0,0,0,0,0,0,0,0,0,0,0,0,0,0,0,0,0,0,0,0,0,0,0,0,0,0,0,0,0,0,0,0,0,0,0,0,0,0,0,0,0,0,0,0,0,0,0,0,0,0,0,0,0,0,0,0,0,0.0295,0.0295,0,0.0269,0.0269,0.0268,0.025,0.0251,0.0251,0.0251,0.0231,0.023,0.0229,0,0,0,0,0,0,0,0,0,0,0,0,0,0.0289,0.0289,0.0295,0.0295,0.0295,0.0269,0.0269,0.0268,0.025,0.0251,0.0251,0.0251,0.0231,0.023,0.0229,0,0,0,0,0,0,0,0,0,0,0,0,0,0.0278,0.0289,0.0295,0.0285,0.0284,0.0269,0.0269,0.0268,0.025,0.0251,0.0251,0.0251,0.0231,0.023,0.0229,0.0221,0,0,0.0226,0.0226,0,0,0,0,0,0,0,0,0.0278,0.0278,0.0286,0.0285,0.0284,0.0265,0.0259,0.0253,0.025,0.0261,0.0251,0.0251,0.0244,0.0242,0.0234,0.022,0.0219,0.0226,0.0226,0.0225,0.0225,0,0,0,0,0,0,0,0.0279,0.0279,0.0282,0.0286,0.0285,0.0268,0.0266,0.0257,0.025,0.026,0.0259,0.026,0.0243,0.0234,0.0233,0.0219,0.0226,0.0225,0.0225,0.0225,0.0214,0.0214,0,0,0,0,0,0,0.0289,0.028,0.0283,0.0282,0.0284,0.0268,0.0266,0.0269,0.025,0.0248,0.026,0.0259,0.0236,0.0234,0.0232,0.0242,0.0225,0.0224,0.0224,0.0214,0.0214,0.0214,0,0,0,0,0,0,0.0289,0.029,0.0284,0.0282,0.028,0.0268,0.0271,0.0269,0.0266,0.025,0.0248,0.0261,0.0236,0.0234,0.0235,0.0241,0.0224,0.0223,0.0213,0.0214,0.0214,0.0249,0,0,0,0,0,0,0.0289,0.029,0.0299,0.0283,0.0281,0.0281,0.0271,0.0268,0.0267,0.0266,0.0251,0.0249,0.0236,0.0236,0.0234,0.0239,0.0222,0.0213,0.0214,0.0214,0.0247,0.0251,0.0253,0,0,0,0,0,0.0289,0.0299,0.0299,0.03,0.0292,0.0281,0.0278,0.0268,0.0267,0.0266,0.0262,0.0249,0.0238,0.0236,0.0233,0.0238,0.0213,0.0214,0.0214,0.0246,0.025,0.0253,0,0,0,0,0,0,0.0298,0.0298,0.0298,0.0307,0.0298,0.0279,0.028,0.0274,0.0268,0.0271,0.0255,0.0252,0.0253,0.0242,0.0241,0.0236,0.0222,0.0222,0.0248,0.0251,0.0254,0.0265,0.0222,0,0,0,0,0,0.0306,0.0317,0.0307,0.0316,0.0311,0.0297,0.0294,0.0288,0.028,0.0277,0.0266,0.0257,0.0251,0.025,0.0239,0.024,0.022,0.0241,0.0244,0.0246,0.0253,0.0226,0.0227,0.0216,0.0216,0.0216,0,0,0.0312,0.0315,0.0321,0.0319,0.0311,0.0311,0.0295,0.0293,0.0299,0.0277,0.028,0.0266,0.0253,0.0252,0.0252,0.0247,0.0237,0.0247,0.0249,0.0254,0.0227,0.0228,0.0229,0.0217,0.0217,0.0217,0,0,0.0326,0.0331,0.0341,0.0339,0.0336,0.0327,0.0329,0.0313,0.0311,0.0312,0.0299,0.0292,0.0279,0.0271,0.0267,0.028,0.0251,0.0274,0.0301,0.0275,0.0276,0.0276,0.0247,0.0245,0.0279,0.0279,0.0279,0,0.0335,0.0349,0.0341,0.0349,0.0355,0.0337,0.0346,0.0339,0.0328,0.0332,0.032,0.0303,0.0289,0.0294,0.0297,0.0286,0.0266,0.029,0.0279,0.0279,0.0278,0.0249,0.0246,0.028,0.028,0.028,0.028,0,0.0351,0.0367,0.0371,0.0381,0.0382,0.0388,0.038,0.038,0.0375,0.0367,0.0366,0.0343,0.0335,0.0326,0.0316,0.0312,0.0295,0.0283,0.0271,0.0282,0.025,0.0246,0.0283,0.0282,0.0282,0.0281,0,0,0.0364,0.0381,0.0385,0.0402,0.0404,0.0408,0.0418,0.0421,0.0435,0.0414,0.0423,0.0404,0.0387,0.0382,0.0362,0.0341,0.0316,0.0316,0.0314,0.0289,0.0256,0.0232,0.0225,0.03,0.03,0.03,0.0233,0,0.0382,0.0409,0.0413,0.0444,0.0456,0.0455,0.0468,0.0472,0.0466,0.0467,0.0442,0.0441,0.0411,0.0409,0.0382,0.0335,0.0308,0.0336,0.0248,0.0246,0.0224,0.0221,0.0299,0.023,0.0229,0.0228,0.0228,0,0.0397,0.0418,0.045,0.0488,0.0493,0.0511,0.0536,0.0549,0.0545,0.0538,0.0525,0.05,0.0474,0.0442,0.0365,0.0383,0.0325,0.0281,0.0277,0.0243,0.0215,0.0217,0.022,0.0221,0.0221,0.0222,0.0222,0,0.0413,0.0447,0.0481,0.0493,0.0524,0.0547,0.0565,0.0573,0.0594,0.0586,0.059,0.0547,0.0533,0.0455,0.0365,0.0364,0.0269,0.0254,0.0177,0.0174,0.02,0.0201,0.0194,0.0194,0.0195,0.0195,0.0195,0,0.0434,0.0465,0.0496,0.0518,0.0566,0.058,0.063,0.0635,0.0652,0.0678,0.0634,0.0633,0.0535,0.0469,0.0377,0.0265,0.0275,0.018,0.0156,0.0216,0.0218,0.0197,0.0198,0.0192,0.0193,0.0193,0.0194,0,0.045,0.0469,0.0515,0.0558,0.0578,0.0616,0.0677,0.071,0.0718,0.0748,0.0748,0.0698,0.061,0.05,0.0372,0.0288,0.0178,0.0134,0.0206,0.0187,0.0095,0.0099,0.0041,0.004,0.0039,0.0038,0.0037,0,0.0459,0.0484,0.0544,0.0578,0.0604,0.0664,0.0706,0.0738,0.0772,0.0785,0.0797,0.073,0.0678,0.0482,0.036,0.0176,0.0148,0.0086,0.009,0.0098,0.008,0.0086,0.0091,0.0035,0.0035,0.0034,0.0034,0,0.0479,0.0504,0.0541,0.0605,0.066,0.0723,0.0784,0.081,0.0847,0.0856,0.083,0.0733,0.0631,0.0479,0.0336,0.0205,0.0123,0.0073,0.0075,0.0078,0.009,0.0074,0.0081,0.003,0.0031,0.0031,0.0031,0,0.0495,0.0521,0.057,0.0629,0.0698,0.0761,0.0793,0.0831,0.0862,0.087,0.0859,0.075,0.0693,0.0494,0.0363,0.0229,0.0192,0.0142,0.014,0.0143,0.0188,0.022,0.0179,0,0,0,0,0,0.0504,0.0536,0.0589,0.0654,0.0723,0.0765,0.0836,0.0864,0.0895,0.0879,0.087,0.0772,0.058,0.0502,0.0364,0.0331,0.0164,0.0163,0.0105,0.0008,0.0012,0.0046,0,0,0,0,0,0,0.0511,0.0561,0.0585,0.0666,0.0712,0.0792,0.0838,0.086,0.0852,0.086,0.0763,0.0723,0.054,0.0656,0.0357,0.0318,0.0258,0.008,0.0076,0.0005,0.0009,0.0013,0.0049,0,0,0,0,0]}]]